Total_Precipitation_Accumulation
1.51 1.40 1.36 1.52 1.53 1.67 1.74 1.86 1.95 1.83 1.62 1.44 1.42 1.41 1.49 1.48 1.44 1.44 1.78 2.17 2.63 3.32 3.62 3.52 3.32 3.11 3.06 3.03 2.88 2.81 2.71 2.55 2.70 3.08 3.69 3.94 3.67 3.17 2.82 2.54 2.28 2.02 2.06
1.34 1.36 1.26 1.34 1.44 1.65 1.91 2.03 1.88 1.81 1.68 1.62 1.63 1.57 1.57 1.52 1.47 1.36 1.51 1.71 1.76 2.15 2.80 3.39 3.58 3.43 3.33 3.26 3.02 2.91 2.79 2.60 2.62 2.82 2.89 3.01 3.06 2.81 2.55 2.47 2.26 2.04 2.19
1.15 1.25 1.31 1.31 1.37 1.63 1.94 2.16 2.03 1.91 1.73 1.71 1.71 1.67 1.60 1.58 1.50 1.43 1.53 1.69 1.57 1.60 2.06 2.79 3.46 3.66 3.47 3.36 3.11 2.94 2.71 2.47 2.40 2.49 2.59 2.56 2.71 2.72 2.55 2.41 2.26 2.15 2.15
1.16 1.26 1.36 1.32 1.35 1.60 1.89 2.16 2.22 2.21 2.11 2.02 1.93 1.81 1.71 1.84 1.68 1.56 1.63 1.77 1.88 1.72 1.78 2.20 2.76 3.27 3.42 3.47 3.12 2.79 2.54 2.33 2.25 2.21 2.35 2.26 2.41 2.57 2.52 2.38 2.36 2.42 2.37
1.20 1.31 1.53 1.56 1.57 1.75 1.86 1.90 2.08 2.13 2.21 2.17 1.92 1.88 1.79 1.91 2.01 1.90 1.98 2.07 2.10 2.01 1.89 1.86 2.09 2.36 2.94 3.31 3.23 2.98 2.79 2.44 2.24 2.12 2.26 2.14 2.12 2.36 2.45 2.29 2.34 2.47 2.48
1.42 1.38 1.56 1.62 1.68 1.94 1.99 2.03 2.28 2.28 2.21 2.27 2.02 1.90 1.88 1.89 1.93 2.15 2.30 2.32 2.28 2.07 2.03 1.90 2.01 1.97 2.39 2.85 3.01 2.99 2.83 2.75 2.63 2.43 2.47 2.35 2.15 2.26 2.40 2.24 2.29 2.38 2.50
1.51 1.55 1.62 1.68 1.73 1.86 1.92 2.03 2.40 2.46 2.30 2.15 2.34 2.34 2.24 2.04 1.96 2.05 2.19 2.43 2.51 2.29 2.18 2.19 2.10 2.01 1.96 2.18 2.37 2.63 2.71 2.98 3.10 2.91 2.72 2.50 2.26 2.38 2.50 2.34 2.38 2.37 2.39
1.45 1.40 1.63 1.80 1.79 1.95 2.00 2.15 2.46 2.72 2.46 2.26 2.64 3.12 2.87 2.57 2.21 1.97 2.03 2.10 2.35 2.34 2.18 2.06 1.97 1.97 1.93 1.93 1.79 2.02 2.38 2.89 3.35 3.17 2.76 2.60 2.43 2.34 2.45 2.38 2.37 2.32 2.33
1.71 1.66 1.78 1.96 1.93 2.01 2.12 2.16 2.25 2.77 2.94 2.67 2.60 3.21 3.09 2.83 2.77 2.22 1.82 1.73 2.01 2.22 2.23 2.10 2.01 2.07 2.07 2.08 1.86 1.70 1.92 2.36 3.05 3.11 2.83 2.81 2.72 2.48 2.30 2.22 2.21 2.32 2.42
1.97 1.84 1.89 2.00 2.05 2.14 2.12 1.94 2.09 2.60 3.13 3.18 2.93 2.69 2.53 2.46 2.64 2.56 1.99 1.65 1.71 1.91 2.16 2.06 2.06 2.15 2.19 2.25 2.17 1.82 1.64 1.85 2.44 3.03 3.21 3.13 3.00 2.76 2.52 2.34 2.26 2.29 2.29
2.01 1.86 1.83 2.00 2.11 2.19 2.17 2.20 2.34 2.63 2.97 3.26 3.22 2.94 2.65 2.41 1.99 2.16 2.21 1.98 1.69 1.61 1.72 1.87 2.04 2.11 2.15 2.13 2.19 2.00 1.62 1.49 1.81 2.47 3.08 3.25 3.14 3.01 2.87 2.79 2.79 2.72 2.56
1.87 1.83 1.84 1.90 1.91 2.00 2.10 2.25 2.48 2.62 2.81 3.03 3.10 2.79 2.64 2.54 2.31 2.12 1.95 2.03 1.99 1.68 1.54 1.56 1.69 1.89 1.97 2.05 1.93 1.96 1.67 1.42 1.43 1.62 2.05 2.59 2.83 2.98 3.06 3.12 3.07 2.92 2.86
1.65 1.66 1.72 1.75 1.71 1.73 1.87 2.04 2.26 2.28 2.40 2.61 2.73 2.63 2.47 2.28 2.21 2.25 2.19 2.06 1.91 1.64 1.51 1.36 1.45 1.61 1.63 1.81 1.97 1.96 1.66 1.53 1.37 1.30 1.37 1.61 2.02 2.39 2.75 3.10 3.22 3.16 3.12
1.44 1.40 1.43 1.51 1.53 1.55 1.62 1.80 1.95 1.93 1.98 2.18 2.24 2.31 2.23 2.12 2.12 2.11 2.14 2.27 2.13 1.89 1.54 1.21 1.27 1.45 1.42 1.51 1.83 1.90 1.51 1.43 1.27 1.20 1.21 1.27 1.43 1.71 2.09 2.45 2.75 2.94 3.00
1.20 1.17 1.22 1.35 1.46 1.46 1.47 1.63 1.75 1.70 1.76 1.90 2.03 2.19 2.13 2.06 2.03 2.04 2.11 2.21 2.27 2.14 1.84 1.37 1.21 1.20 1.24 1.32 1.67 1.55 1.41 1.41 1.27 1.18 1.10 1.09 1.15 1.28 1.46 1.73 1.96 2.14 2.23
1.12 1.12 1.14 1.16 1.20 1.25 1.31 1.50 1.67 1.72 1.71 1.77 1.84 1.96 2.09 2.08 2.07 2.05 2.12 2.15 2.14 2.13 1.99 1.56 1.28 1.16 1.26 1.20 1.42 1.20 1.30 1.50 1.28 1.11 1.04 1.00 1.02 1.12 1.23 1.40 1.46 1.43 1.43
0.90 0.90 0.89 0.95 1.08 1.10 1.13 1.32 1.42 1.43 1.56 1.65 1.62 1.66 1.82 1.93 2.04 2.05 2.06 2.07 2.11 2.08 1.94 1.69 1.35 1.19 1.33 1.36 1.40 1.21 1.18 1.23 1.16 1.12 1.05 0.98 0.94 1.00 1.02 1.14 1.26 1.17 1.08
0.69 0.73 0.78 0.78 0.96 1.13 1.17 1.22 1.23 1.22 1.36 1.46 1.48 1.54 1.58 1.60 1.70 1.83 1.95 1.93 1.99 2.03 1.99 1.88 1.58 1.36 1.37 1.46 1.63 1.59 1.44 1.33 1.31 1.41 1.34 1.18 1.07 1.06 1.08 1.10 1.20 1.16 0.96
0.61 0.67 0.77 0.77 0.81 0.95 1.07 1.09 1.09 1.11 1.16 1.22 1.25 1.32 1.35 1.45 1.59 1.60 1.67 1.75 1.82 1.86 1.97 1.93 1.82 1.71 1.56 1.50 1.59 1.57 1.60 1.72 1.64 1.61 1.64 1.45 1.29 1.20 1.16 1.17 1.20 1.20 1.07
0.65 0.66 0.64 0.68 0.73 0.82 0.94 0.97 0.98 0.98 0.99 1.00 1.11 1.18 1.24 1.30 1.40 1.46 1.48 1.61 1.74 1.82 1.85 1.83 1.77 1.70 1.65 1.62 1.62 1.62 1.70 1.84 1.91 1.75 1.68 1.57 1.53 1.43 1.31 1.25 1.20 1.21 1.21
0.49 0.52 0.50 0.52 0.56 0.65 0.72 0.75 0.80 0.88 0.93 0.95 1.04 1.06 1.10 1.11 1.16 1.22 1.21 1.39 1.54 1.72 1.79 1.82 1.73 1.62 1.56 1.58 1.58 1.59 1.68 1.90 1.97 1.96 1.90 1.74 1.60 1.42 1.35 1.30 1.24 1.24 1.26
0.38 0.41 0.43 0.46 0.49 0.51 0.62 0.65 0.65 0.73 0.83 0.88 0.95 0.98 1.06 1.10 1.06 1.02 1.00 1.07 1.20 1.32 1.51 1.64 1.68 1.60 1.52 1.50 1.62 1.74 1.73 1.88 2.01 1.90 1.79 1.84 1.73 1.61 1.45 1.31 1.36 1.37 1.31
0.42 0.42 0.44 0.48 0.44 0.42 0.50 0.47 0.59 0.76 0.77 0.77 0.78 0.91 1.02 1.06 1.10 1.10 0.99 0.98 0.98 1.01 1.13 1.31 1.44 1.45 1.45 1.48 1.60 1.72 1.80 1.87 1.79 1.83 1.79 1.88 1.80 1.64 1.44 1.41 1.50 1.38 1.33
0.43 0.48 0.48 0.50 0.44 0.36 0.42 0.44 0.53 0.64 0.68 0.65 0.69 0.81 0.96 1.07 1.13 1.15 1.09 1.14 1.08 0.95 0.94 1.01 1.18 1.29 1.33 1.51 1.70 1.87 1.99 1.99 1.88 1.83 1.78 1.83 1.72 1.55 1.39 1.36 1.49 1.37 1.27
0.40 0.46 0.53 0.52 0.43 0.35 0.39 0.45 0.56 0.65 0.71 0.70 0.70 0.76 0.93 1.01 1.17 1.23 1.15 1.21 1.19 0.97 0.90 1.00 1.04 1.14 1.28 1.45 1.67 1.89 1.98 1.99 1.97 1.85 1.65 1.54 1.45 1.48 1.47 1.38 1.36 1.36 1.25
0.41 0.44 0.48 0.46 0.41 0.39 0.43 0.45 0.53 0.55 0.65 0.72 0.75 0.77 1.00 1.07 1.17 1.15 1.08 1.26 1.35 1.16 0.91 0.90 0.99 1.12 1.24 1.40 1.66 1.83 2.06 2.08 1.90 1.81 1.62 1.46 1.44 1.55 1.72 1.55 1.33 1.23 1.16